User: anonymous   Login
Location: Unspecified
(0.0000°N, 0.0000°E)
Time: 17:43:29
(UTC+00:00)
Language:

Meteor 3-3 - Orbit

View from above orbital plane
View from above orbital plane
View from above satellite
View from above satellite

Ground track
Ground track

The orbit data is extracted from the following two-line orbital elements,

1 20305U 89086A   18200.39136657  .00000104  00000-0  28592-3 0  9996
2 20305  82.5532 305.8371 0007533  38.1992  23.2059 13.04630112370040
Epoch (UTC): 19 July 2018 09:23:34
Eccentricity: 0.0007533
inclination: 82.5532°
perigee height: 1238 km
apogee height: 1250 km
right ascension of ascending node: 305.8371°
argument of perigee: 38.1992°
revolutions per day: 13.04630112
mean anomaly at epoch: 23.2059°
orbit number at epoch: 37004

The dashed part of the orbit path shows where the satellite is in the earth's shadow,  

DLR